Location: Shell Point
(30.0571°N, 84.2896°W)
Time: 08:42:51
(UTC-04:00)

Meteor 2-19 Rocket - Visible Passes

Search period start: 29 July 2014 00:00
Search period end: 08 August 2014 00:00
Orbit: 936 x 959 km, 82.5° (Epoch: 28 July)

Date Brightness Start Highest point End Pass type
(mag) Time Alt. Az. Time Alt. Az. Time Alt. Az.
29 Jul 6.2 00:52:47 10° N 00:55:26 25° NNE 00:55:26 25° NNE visible
29 Jul 6.8 02:38:47 10° NW 02:39:30 12° NW 02:39:30 12° NW visible
30 Jul 6.1 01:09:33 10° N 01:12:17 28° N 01:12:17 28° N visible
30 Jul 6.8 23:44:44 10° NE 23:45:04 11° NE 23:45:04 11° NE visible
31 Jul 6.2 01:26:36 10° NNW 01:29:08 26° NNW 01:29:08 26° NNW visible
01 Aug 6.5 00:00:02 10° NNE 00:01:56 17° NE 00:01:56 17° NE visible
01 Aug 6.5 01:43:57 10° NNW 01:46:00 21° NW 01:46:00 21° NW visible
02 Aug 6.2 00:16:17 10° NNE 00:18:49 23° NNE 00:18:49 23° NNE visible
02 Aug 6.8 02:01:42 10° NW 02:02:52 14° NW 02:02:52 14° NW visible
03 Aug 6.1 00:32:56 10° N 00:35:42 28° N 00:35:42 28° N visible
04 Aug 6.1 00:49:54 10° N 00:52:36 28° N 00:52:36 28° N visible
04 Aug 6.5 23:23:48 10° NNE 23:25:27 15° NE 23:25:27 15° NE visible
05 Aug 6.4 01:07:08 10° NNW 01:09:31 24° NNW 01:09:31 24° NNW visible
05 Aug 6.2 23:39:49 10° NNE 23:42:22 22° NE 23:42:22 22° NE visible
06 Aug 6.7 01:24:43 10° NNW 01:26:26 17° NW 01:26:26 17° NW visible
06 Aug 6.0 23:56:22 10° N 23:59:18 28° NNE 23:59:18 28° NNE visible
07 Aug 7.0 01:42:56 10° NW 01:43:22 11° NW 01:43:22 11° NW visible
